[[{"header":{"parameterUnit":"m.s-1","parameterCategory":1,"la1":30.2992,"la2":30.254,"lo1":-89.0895,"lo2":-89.0443,"dy":0.0025,"dx":0.0025,"nx":19,"ny":19,"refTime":"2026-04-25T09:00:00:Z","depth":0,"parameterNumber":2,"parameterNumberName":"U-component_of_WINDS"},"data":[0,0,0,2.345,2.3453,2.3621,2.3622,2.3831,2.3833,0,0,0,0,0,0,0,0,0,0,0,2.3397,2.3399,2.345,2.3454,2.3621,2.3622,2.3831,2.3833,0,0,0,0,0,0,0,0,0,0,0,2.3397,2.3398,2.34,2.3454,2.3621,2.3622,2.383,2.3706,0,0,0,0,0,0,0,0,0,0,2.3544,2.3492,2.3398,2.34,2.3455,2.3621,2.3622,2.37,2.3713,2.3753,0,2.3787,0,2.3813,2.3846,2.3847,0,0,0,2.3456,2.3481,2.3529,2.34,2.3457,2.362,2.3546,2.3707,2.3723,2.3771,2.379,2.3798,2.3817,2.3848,2.3849,2.4068,2.4068,0,0,2.3447,2.3426,2.3518,2.3538,2.3512,2.3541,2.3551,2.3717,2.3736,2.3791,2.3803,2.382,2.3849,2.3851,2.4067,2.4068,0,0,0,2.3419,2.3419,2.3463,2.353,2.356,2.3546,2.3558,2.3729,2.3745,2.3805,2.3823,2.385,2.3853,2.4066,2.4067,2.4091,0,0,0,2.3413,2.3403,2.3459,2.3448,2.3557,2.3647,2.3566,2.3734,2.3753,2.3822,2.385,2.3855,2.4065,2.4067,2.4088,2.4105,0,0,0,2.3387,2.34,2.3423,2.3446,2.3518,2.3645,2.367,2.3738,2.3764,2.3847,2.3855,2.4064,2.4066,2.4085,2.4101,2.4156,0,0,0,2.3354,2.3442,2.3423,2.3529,2.3516,2.3658,2.3669,2.3777,2.3851,2.3851,2.4065,2.4067,2.4085,2.4099,2.4153,2.4197,2.4213,0,0,2.3454,2.3454,2.3518,2.3505,2.3645,2.3634,2.3778,2.3867,2.3895,2.4008,2.4014,2.4089,2.4101,2.4155,2.4316,2.4328,0,0,0,2.3542,2.3588,2.3629,2.3699,2.3769,2.383,2.3899,2.3931,2.4029,2.3949,2.4125,2.4132,2.4165,2.4187,2.4198,2.4227,2.4077,2.4076,2.4076,2.3653,2.3683,2.3791,2.384,2.3908,2.3978,2.4035,2.4091,2.4103,2.4144,2.4177,2.4271,2.4296,2.4304,2.4334,2.4204,2.4204,2.4204,2.4204,2.3802,2.387,2.3882,2.399,2.4022,2.4113,2.4184,2.4188,2.4278,2.4248,2.4279,2.4243,2.4318,2.4345,2.4206,2.4206,2.4206,2.4206,2.4205,2.3876,2.3914,2.3953,2.4056,2.4133,2.4181,2.4265,2.4291,2.4316,2.4346,2.4384,2.4383,2.4385,2.4362,2.4363,2.4363,2.4363,2.4364,2.4364,2.3938,2.3981,2.4049,2.413,2.4178,2.4244,2.4315,2.4362,2.4422,2.4434,2.4434,2.444,2.432,2.4288,2.4369,2.4368,2.4367,2.4367,2.4367,2.4075,2.4049,2.4154,2.4201,2.4298,2.4371,2.4404,2.4499,2.4542,2.4583,2.4583,2.449,2.4492,2.4483,2.4457,2.4577,2.4577,2.4577,2.4577,2.4137,2.4141,2.4254,2.4328,2.4404,2.4444,2.4561,2.4617,2.467,2.4699,2.4686,2.4654,2.4644,2.4651,2.4639,2.4615,2.4773,2.4773,2.4773,2.4223,2.4235,2.4329,2.4381,2.4458,2.4524,2.4635,2.472,2.4775,2.4782,2.4722,2.4713,2.4662,2.4644,2.4647,2.4628,2.4584,0,0]},{"header":{"parameterUnit":"m.s-1","parameterCategory":1,"la1":30.2992,"la2":30.254,"lo1":-89.0895,"lo2":-89.0443,"dy":0.0025,"dx":0.0025,"nx":19,"ny":19,"refTime":"2026-04-25T09:00:00:Z","depth":0,"parameterNumber":3,"parameterNumberName":"V-component_of_WINDS"},"data":[0,0,0,2.1485,2.1485,2.1516,2.1516,2.1566,2.1566,0,0,0,0,0,0,0,0,0,0,0,2.1483,2.1483,2.1485,2.1486,2.1516,2.1516,2.1566,2.1566,0,0,0,0,0,0,0,0,0,0,0,2.1482,2.1483,2.1484,2.1486,2.1516,2.1516,2.1566,2.1539,0,0,0,0,0,0,0,0,0,0,2.1507,2.1512,2.1483,2.1484,2.1486,2.1516,2.1516,2.1537,2.154,2.1557,0,2.1574,0,2.1571,2.157,2.1571,0,0,0,2.148,2.151,2.1512,2.1484,2.1486,2.1516,2.1501,2.1539,2.1542,2.1561,2.1574,2.1576,2.1572,2.1571,2.1571,2.1685,2.1686,0,0,2.1478,2.1492,2.1509,2.1514,2.1511,2.15,2.1502,2.1541,2.1556,2.1575,2.1577,2.1573,2.1571,2.1572,2.1685,2.1686,0,0,0,2.1477,2.1491,2.1492,2.1513,2.1517,2.1501,2.1503,2.1554,2.1553,2.1577,2.1573,2.1571,2.1572,2.1684,2.1685,2.1738,0,0,0,2.1476,2.149,2.1491,2.15,2.1517,2.1536,2.1516,2.1551,2.1555,2.1573,2.1572,2.1573,2.1683,2.1684,2.1735,2.1761,0,0,0,2.1478,2.149,2.1497,2.15,2.1514,2.1535,2.1537,2.1551,2.1552,2.1571,2.1573,2.1682,2.1684,2.1732,2.1756,2.1796,0,0,0,2.1485,2.1544,2.1499,2.1563,2.1514,2.1568,2.1536,2.1575,2.1597,2.1572,2.1683,2.1685,2.1731,2.1753,2.1793,2.1833,2.185,0,0,2.1567,2.1554,2.1591,2.1551,2.1617,2.1562,2.1635,2.1642,2.1631,2.1668,2.167,2.1736,2.1756,2.1795,2.1942,2.1956,0,0,0,2.1622,2.1648,2.1663,2.1684,2.1691,2.1699,2.1693,2.1696,2.1726,2.1653,2.176,2.1771,2.1794,2.1812,2.1824,2.1843,2.1694,2.1694,2.1693,2.1759,2.1741,2.1801,2.1787,2.1808,2.1802,2.1817,2.1819,2.1795,2.1821,2.1832,2.1923,2.1945,2.1954,2.1974,2.1851,2.1851,2.1851,2.1851,2.1878,2.1914,2.188,2.1926,2.1907,2.1945,2.194,2.1922,2.1955,2.1913,2.1932,2.189,2.197,2.1987,2.1855,2.1854,2.1854,2.1853,2.1853,2.1967,2.1981,2.1983,2.2012,2.2036,2.202,2.2053,2.2034,2.2016,2.2035,2.2045,2.2044,2.2042,2.2041,2.2041,2.2041,2.2042,2.2042,2.2042,2.2059,2.2059,2.209,2.2101,2.2112,2.2125,2.2118,2.2128,2.2135,2.2118,2.2118,2.2093,2.1981,2.1954,2.2047,2.2046,2.2045,2.2045,2.2045,2.2189,2.2156,2.2204,2.2215,2.2227,2.2252,2.2227,2.225,2.2255,2.2272,2.2242,2.2162,2.2148,2.2138,2.2116,2.2245,2.2245,2.2245,2.2245,2.2265,2.2255,2.2299,2.2318,2.2335,2.2317,2.237,2.2365,2.2354,2.2357,2.2335,2.2303,2.2294,2.2285,2.2272,2.2251,2.2412,2.2412,2.2412,2.2344,2.2335,2.2385,2.2374,2.2382,2.2389,2.2438,2.2462,2.2442,2.2419,2.2358,2.2351,2.23,2.2284,2.226,2.2241,2.2202,0,0]}]]